• In India
  • List of Countries
  • For 7 days
  • Water Temperature
  • Satellite Maps
  • Weather Map
  • Weather Widgets
  • user-avatar
    Login

    Hourly Weather Popravka

    Today, 18 June, Monday

    Time Temperature Precipitation Wind Pressure Humidity
    00:00 +20°C° 0.1 mm 2 mps 745 mmHg 90%
    01:00 +20°C° 0.1 mm 2 mps 744 mmHg 91%
    02:00 +21°C° 0 mm 1 mps 744 mmHg 90%
    03:00 +20°C° 0.5 mm 1 mps 744 mmHg 91%
    04:00 +20°C° 0.5 mm 1 mps 744 mmHg 92%
    05:00 +19°C° 0.5 mm 2 mps 744 mmHg 93%
    06:00 +21°C° 0.1 mm 2 mps 745 mmHg 89%
    07:00 +23°C° 0.1 mm 2 mps 745 mmHg 84%
    08:00 +25°C° 0.1 mm 2 mps 745 mmHg 80%
    09:00 +26°C° 1.2 mm 2 mps 745 mmHg 76%
    10:00 +26°C° 1.2 mm 3 mps 745 mmHg 72%
    11:00 +27°C° 1.2 mm 3 mps 745 mmHg 68%
    12:00 +28°C° 0.4 mm 3 mps 745 mmHg 65%
    13:00 +28°C° 0.4 mm 3 mps 745 mmHg 63%
    14:00 +28°C° 0.4 mm 3 mps 745 mmHg 60%
    15:00 +28°C° 0.1 mm 3 mps 745 mmHg 63%
    16:00 +28°C° 0.1 mm 3 mps 745 mmHg 65%
    17:00 +27°C° 0.1 mm 3 mps 745 mmHg 68%
    18:00 +26°C° 0 mm 3 mps 745 mmHg 72%
    19:00 +24°C° 0 mm 2 mps 745 mmHg 75%
    20:00 +21°C° 0 mm 2 mps 745 mmHg 79%
    21:00 +21°C° 0 mm 2 mps 745 mmHg 79%
    22:00 +21°C° 0 mm 1 mps 746 mmHg 80%
    23:00 +20°C° 0 mm 1 mps 746 mmHg 80%

    Tomorrow, 19 June, Tuesday

    Time Temperature Precipitation Wind Pressure Humidity
    00:00 +20°C° 0 mm 1 mps 746 mmHg 81%
    01:00 +20°C° 0 mm 1 mps 747 mmHg 82%
    02:00 +17°C° 0 mm 0 mps 747 mmHg 82%
    03:00 +17°C° 0 mm 0 mps 747 mmHg 83%
    04:00 +18°C° 0 mm 0 mps 747 mmHg 83%
    05:00 +18°C° 0 mm 0 mps 747 mmHg 83%
    06:00 +19°C° 0 mm 0 mps 747 mmHg 79%
    07:00 +21°C° 0 mm 0 mps 748 mmHg 74%
    08:00 +23°C° 0 mm 0 mps 748 mmHg 70%
    09:00 +26°C° 0 mm 1 mps 748 mmHg 66%
    10:00 +27°C° 0 mm 1 mps 748 mmHg 63%
    11:00 +28°C° 0 mm 1 mps 748 mmHg 59%
    12:00 +28°C° 0 mm 1 mps 748 mmHg 58%
    13:00 +29°C° 0 mm 1 mps 748 mmHg 57%
    14:00 +29°C° 0 mm 1 mps 748 mmHg 56%
    15:00 +29°C° 0.1 mm 1 mps 748 mmHg 58%
    16:00 +29°C° 0.1 mm 1 mps 747 mmHg 59%
    17:00 +29°C° 0.1 mm 1 mps 747 mmHg 61%
    18:00 +27°C° 0.1 mm 1 mps 747 mmHg 67%
    19:00 +26°C° 0.1 mm 1 mps 747 mmHg 72%
    20:00 +24°C° 0.1 mm 1 mps 747 mmHg 77%
    21:00 +23°C° 0 mm 1 mps 747 mmHg 80%
    22:00 +23°C° 0 mm 1 mps 748 mmHg 82%
    23:00 +22°C° 0 mm 1 mps 748 mmHg 85%

    Day after tomorrow, 20 June, Wednesday

    Time Temperature Precipitation Wind Pressure Humidity
    00:00 +22°C° 0 mm 1 mps 748 mmHg 86%
    01:00 +21°C° 0 mm 1 mps 748 mmHg 88%
    02:00 +21°C° 0 mm 1 mps 748 mmHg 90%
    03:00 +20°C° 0 mm 2 mps 748 mmHg 90%
    04:00 +20°C° 0 mm 2 mps 748 mmHg 91%
    05:00 +20°C° 0 mm 2 mps 749 mmHg 92%
    06:00 +21°C° 0 mm 2 mps 749 mmHg 88%
    07:00 +24°C° 0 mm 2 mps 749 mmHg 83%
    08:00 +25°C° 0 mm 2 mps 749 mmHg 79%
    09:00 +26°C° 0.6 mm 3 mps 749 mmHg 76%
    10:00 +27°C° 0.6 mm 3 mps 749 mmHg 72%
    11:00 +28°C° 0.6 mm 3 mps 749 mmHg 69%
    12:00 +28°C° 0.3 mm 3 mps 749 mmHg 67%
    13:00 +29°C° 0.3 mm 3 mps 749 mmHg 64%
    14:00 +29°C° 0.3 mm 3 mps 749 mmHg 62%
    15:00 +29°C° 0.1 mm 3 mps 749 mmHg 64%
    16:00 +29°C° 0.1 mm 3 mps 749 mmHg 65%
    17:00 +28°C° 0.1 mm 3 mps 749 mmHg 67%
    18:00 +27°C° 0 mm 3 mps 749 mmHg 71%
    19:00 +25°C° 0 mm 2 mps 749 mmHg 75%
    20:00 +24°C° 0 mm 2 mps 749 mmHg 78%
    21:00 +23°C° 0 mm 2 mps 749 mmHg 79%
    22:00 +21°C° 0 mm 2 mps 749 mmHg 80%
    23:00 +20°C° 0 mm 2 mps 749 mmHg 80%

    21 June, Thursday

    Time Temperature Precipitation Wind Pressure Humidity
    00:00 +20°C° 0 mm 2 mps 749 mmHg 81%
    01:00 +19°C° 0 mm 2 mps 749 mmHg 82%
    02:00 +20°C° 0 mm 1 mps 749 mmHg 83%
    03:00 +20°C° 0 mm 1 mps 749 mmHg 84%
    04:00 +20°C° 0 mm 1 mps 749 mmHg 85%
    05:00 +20°C° 0 mm 1 mps 749 mmHg 86%
    06:00 +21°C° 0 mm 1 mps 749 mmHg 81%
    07:00 +23°C° 0 mm 1 mps 749 mmHg 77%
    08:00 +25°C° 0 mm 1 mps 749 mmHg 72%
    09:00 +25°C° 0.1 mm 1 mps 748 mmHg 68%
    10:00 +26°C° 0.1 mm 1 mps 748 mmHg 64%
    11:00 +27°C° 0.1 mm 1 mps 748 mmHg 60%
    12:00 +27°C° 0.1 mm 1 mps 747 mmHg 59%
    13:00 +28°C° 0.1 mm 1 mps 747 mmHg 59%
    14:00 +28°C° 0.1 mm 1 mps 746 mmHg 58%
    15:00 +28°C° 0.1 mm 1 mps 746 mmHg 60%
    16:00 +28°C° 0.1 mm 2 mps 746 mmHg 62%
    17:00 +28°C° 0.1 mm 2 mps 745 mmHg 64%
    18:00 +26°C° 0 mm 2 mps 745 mmHg 69%
    19:00 +25°C° 0 mm 2 mps 745 mmHg 74%
    20:00 +24°C° 0 mm 2 mps 745 mmHg 78%
    21:00 +23°C° 0 mm 2 mps 744 mmHg 81%
    22:00 +21°C° 0 mm 2 mps 744 mmHg 83%
    23:00 +20°C° 0 mm 2 mps 744 mmHg 86%

    22 June, Friday

    Time Temperature Precipitation Wind Pressure Humidity
    00:00 +20°C° 0 mm 2 mps 744 mmHg 87%
    01:00 +20°C° 0 mm 2 mps 743 mmHg 88%
    02:00 +19°C° 0 mm 2 mps 743 mmHg 89%
    03:00 +19°C° 0 mm 2 mps 743 mmHg 89%
    04:00 +19°C° 0 mm 2 mps 742 mmHg 89%
    05:00 +19°C° 0 mm 2 mps 742 mmHg 89%
    06:00 +21°C° 0 mm 2 mps 742 mmHg 85%
    07:00 +24°C° 0 mm 3 mps 742 mmHg 80%
    08:00 +26°C° 0 mm 3 mps 742 mmHg 76%
    09:00 +27°C° 0.3 mm 3 mps 741 mmHg 72%
    10:00 +28°C° 0.3 mm 3 mps 741 mmHg 69%
    11:00 +29°C° 0.3 mm 4 mps 741 mmHg 65%
    12:00 +29°C° 0.8 mm 3 mps 740 mmHg 64%
    13:00 +29°C° 0.8 mm 3 mps 740 mmHg 64%
    14:00 +29°C° 0.8 mm 3 mps 740 mmHg 63%
    15:00 +28°C° 2.3 mm 3 mps 740 mmHg 69%
    16:00 +27°C° 2.3 mm 3 mps 740 mmHg 74%
    17:00 +26°C° 2.3 mm 3 mps 740 mmHg 80%
    18:00 +25°C° 0.8 mm 3 mps 740 mmHg 83%
    19:00 +22°C° 0.8 mm 3 mps 740 mmHg 87%
    20:00 +21°C° 0.8 mm 4 mps 740 mmHg 90%
    21:00 +20°C° 0.1 mm 4 mps 740 mmHg 89%
    22:00 +19°C° 0.1 mm 5 mps 740 mmHg 88%
    23:00 +16°C° 0.1 mm 6 mps 740 mmHg 87%

    23 June, Saturday

    Time Temperature Precipitation Wind Pressure Humidity
    00:00 +16°C° 0.5 mm 5 mps 740 mmHg 88%
    01:00 +15°C° 0.5 mm 5 mps 741 mmHg 88%
    02:00 +14°C° 0.5 mm 5 mps 741 mmHg 89%
    03:00 +14°C° 0.4 mm 5 mps 741 mmHg 90%
    04:00 +14°C° 0.4 mm 5 mps 741 mmHg 91%
    05:00 +14°C° 0.4 mm 6 mps 741 mmHg 92%
    06:00 +13°C° 1.1 mm 6 mps 742 mmHg 92%
    07:00 +13°C° 1.1 mm 5 mps 742 mmHg 92%
    08:00 +13°C° 1.1 mm 5 mps 742 mmHg 92%
    09:00 +13°C° 1.4 mm 6 mps 743 mmHg 92%
    10:00 +11°C° 1.4 mm 6 mps 743 mmHg 92%
    11:00 +11°C° 1.4 mm 6 mps 744 mmHg 92%
    12:00 +13°C° 0.1 mm 6 mps 744 mmHg 85%
    13:00 +15°C° 0.1 mm 6 mps 744 mmHg 78%
    14:00 +16°C° 0.1 mm 6 mps 744 mmHg 71%
    15:00 +17°C° 0 mm 5 mps 744 mmHg 70%
    16:00 +17°C° 0 mm 5 mps 744 mmHg 69%
    17:00 +18°C° 0 mm 4 mps 744 mmHg 67%
    18:00 +17°C° 0 mm 3 mps 744 mmHg 71%
    19:00 +16°C° 0 mm 2 mps 745 mmHg 74%
    20:00 +16°C° 0 mm 1 mps 745 mmHg 78%
    21:00 +15°C° 0 mm 2 mps 745 mmHg 79%
    22:00 +14°C° 0 mm 2 mps 745 mmHg 80%
    23:00 +13°C° 0 mm 2 mps 745 mmHg 82%
    Show more